Regional Weather Roundup
Issued by NWS

Home | Current Version | Previous Version | Graphics & Text | Print | Product List | Glossary On
Versions: 1 2 3 4 5 6 7 8 9 10 11 12 13 14 15 16 17 18 19 20 21 22 23 24 25 26 27 28 29 30 31 32 33 34 35 36 37 38 39 40 41 42 43 44 45 46 47 48 49 50
027
ASUS44 KLIX 251110
RWRLA
LOUISIANA WEATHER ROUNDUP
NATIONAL WEATHER SERVICE NEW ORLEANS LA
600 AM CDT FRI JUL 25 2014

NOTE: "FAIR" INDICATES FEW OR NO CLOUDS BELOW 12,000 FEET WITH NO
      SIGNIFICANT WEATHER AND/OR OBSTRUCTIONS TO VISIBILITY.
      SKY/WX - SKY CONDITION AND SIGNIFICANT WEATHER.
      TMP - AIR TEMPERATURE.    DP   - DEWPOINT TEMPERATURE.
      RH  - RELATIVE HUMIDITY.  PRES - PRESSURE.
      HX  - HEAT INDEX.         WCI  - WIND CHILL INDEX.

*  THESE STATIONS ARE NOT NWS OR FAA STATIONS AND ARE NOT UNDER
   NWS QUALITY CONTROL.

LAZ040-048-061>063-065-066-069-251200-
SOUTHEAST LOUISIANA

CITY           SKY/WX    TMP DP  RH WIND       PRES   REMARKS
N.O. AUDUBON     N/A     79  76  91 MISG        N/A
N.O. INTL ARPT MOCLDY    77  74  90 SW3       30.01R
N.O. LAKEFRONT CLEAR     82  75  79 W12       30.00S
N.O. DOWNTOWN* FAIR      79  72  78 CALM      30.01R
SLIDELL        CLEAR     74  72  93 CALM      29.99R
BATON ROUGE    PTCLDY    74  72  93 CALM      30.01R FOG
BOOTHVILLE     PTCLDY    81  76  84 W9        30.01R
BELLE CHASSE   MOCLDY    77  74  90 CALM      30.00R
BOGALUSA*        N/A     76  72  88 NW3       30.01S FOG
GALLIANO*      NOT AVBL
NEW ROADS*     CLOUDY    75  74  97 CALM      30.01R
GONZALES*      FAIR      76  76  99 SW3       30.00R
HAMMOND*       CLEAR     75  72  88 CALM      30.02R
HOUMA*         CLEAR     75  72  89 CALM      30.01R FOG
PORT FOURCHON* SUNNY     82  75  78 W8        30.02S

$$

LAZ041-044-053-054-251200-
SOUTHWEST LOUISIANA

CITY           SKY/WX    TMP DP  RH WIND       PRES   REMARKS
LAKE CHARLES   CLEAR     77  75  93 CALM      29.99S FOG
LAFAYETTE      CLEAR     76  74  93 CALM      30.00R
PATTERSON      CLEAR     73  72  94 NE5       30.05R
SALT POINT       N/A     84  75  74 VRB3      30.00R
NEW IBERIA     CLEAR     75  73  93 CALM      30.01R
CHENAULT AIRPK CLEAR     75  75 100 CALM      30.00R

$$

LAZ027-028-251200-
CENTRAL LOUISIANA

CITY           SKY/WX    TMP DP  RH WIND       PRES   REMARKS
FORT POLK      CLEAR     73  72  96 CALM      30.02R
ALEXANDRIA INT CLEAR     74  72  93 CALM      30.00R FOG
ALEXANDRIA     PTCLDY    75  72  90 CALM      30.02R FOG

$$

LAZ001-002-251200-
NORTHWEST LOUISIANA

CITY           SKY/WX    TMP DP  RH WIND       PRES   REMARKS
SHREVEPORT     PTCLDY    73  71  93 CALM      30.02S
BARKSDALE AFB  NOT AVBL
DTN SHREVEPORT CLEAR     73  71  93 CALM      30.03S

$$

LAZ014-016-251200-
NORTHEAST LOUISIANA

CITY           SKY/WX    TMP DP  RH WIND       PRES   REMARKS
MONROE         CLOUDY    72  69  90 NE3       30.03R
TALLULAH       CLEAR     67  65  93 CALM      30.01F

$$




USA.gov is the U.S. government's official web portal to all federal, state and local government web resources and services.